Tracking 20719 objects as of 25-May-2020
HD Live streaming from Space Station
objects crossing your sky now

IRIDIUM 33 DEB

Track IRIDIUM 33 DEB now!
10-day predictions


NORAD ID: 34899
Int'l Code: 1997-051NB
Perigee: 619.2 km
Apogee: 649.0 km
Inclination: 86.4 °
Period: 97.2 minutes
Semi major axis: 7005 km
RCS: 0.0083 m2 (small)
Launch date: September 14, 1997
Source: United States (US)
Launch site: TYURATAM MISSILE AND SPACE COMPLEX (TTMTR)

Note: This is SATELLITE DEBRIS
aabbcc
Your satellite tracking list
Your tracking list is empty




NASA's NSSDC Master Catalog

Two Line Element Set (TLE):
1 34899U 97051NB  20144.00798788 +.00005722 +00000-0 +73715-3 0  9995
2 34899 086.4074 159.7621 0021314 019.2830 010.0946 14.80749658588226
Source of the keplerian elements: AFSPC